#timestamp,LO_Frequency,Hit,StdDev 
1609400055.7,286046996.4,P
1609400075.6,286046995.5,P
1609400095.4,286046995.3,P
1609400115.2,286046995.0,Y
1609400135.1,286046998.7,P
1609400136.0,286046998.7,N
1609400155.8,286047001.1,N
1609400175.7,286047002.8,N
1609400195.5,286046998.3,N
1609400215.3,286046999.5,N
1609400235.2,286046999.2,N
1609400255.9,286046999.6,N
1609400275.7,286046996.5,N
1609400295.6,286046999.6,N
1609400315.4,286047001.0,N
1609400335.3,286046998.3,N
1609400355.1,286046998.1,N
1609400356.0,286046998.1,N
1609400375.8,286046999.9,N
1609400395.7,286047002.4,N
1609400415.5,286047000.5,N
1609400435.3,286046998.2,N
1609400455.2,286046998.7,N
1609400475.0,286047000.5,N
1609400475.9,286047000.5,N
1609400495.8,286047001.7,N
1609400515.6,286047003.5,N
1609400535.4,286047004.0,N
1609400555.3,286047001.6,N
1609400575.1,286047004.4,N
1609400595.9,286047001.6,N
1609400615.7,286047002.8,N
1609400635.5,286047001.8,N
1609400655.4,286047004.1,N
1609400675.2,286047001.3,N
1609400695.0,286047004.0,N
1609400695.9,286047004.0,N
1609400715.8,286047002.9,N
1609400735.6,286047003.9,N
1609400755.5,286047000.1,N
1609400775.3,286047002.5,N
1609400795.1,286047001.8,N
1609400815.9,286047004.2,N
1609400835.7,286047003.2,N
1609400855.5,286047003.5,N
1609400875.4,286047005.1,N
1609400895.2,286047006.3,Y
1609400915.1,286047004.4,P
1609400916.0,286047004.4,P
1609400935.8,286047003.5,P
1609400955.6,286047004.6,Y
1609400975.5,286047004.0,P
1609400995.3,286047004.0,P
1609401015.2,286047003.5,P
1609401035.9,286047001.7,Y
1609401055.7,286046999.0,P
1609401075.6,286046997.2,N
1609401095.4,286046999.5,N
1609401115.3,286047000.5,N
1609401135.1,286046999.0,N
1609401136.0,286046999.0,N
1609401155.8,286047000.4,N
1609401175.7,286046998.9,N
1609401195.5,286046999.2,N
1609401215.3,286047001.0,N
1609401235.2,286046999.2,N
1609401255.0,286046996.6,N
1609401255.9,286046996.6,N
1609401275.8,286046999.3,N
1609401325.6,286046999.9,E
1609401335.5,286047002.8,N
1609401355.4,286046999.1,P
1609401375.2,286046998.6,N
1609401395.1,286046999.3,N
1609401396.0,286046999.3,N
1609401415.8,286046999.1,N
1609401435.6,286046997.0,N
1609401455.5,286046999.5,N
1609401475.3,286046998.3,N
1609401495.1,286046998.1,N
1609401515.9,286046998.7,N
1609401535.7,286046998.3,N
1609401555.6,286046999.3,N
1609401575.4,286046998.3,N
1609401595.2,286047001.1,N
